,,Stat5,,Stat1,,Stat2,,Stat3,,Stat4,,Wind1,,Wind1,
time,status,PA1M_AVG,status,PR1M_SUM,status,RH1M_AVG,status,SR1M_AVG,status,TA1M_AVG,status,W1dAve1m,status,W1sAve1m,
2002-07-27, 07:41:00,VALID,916.775,VALID,0,VALID,88.5177,VALID,240.194,VALID,22.1074,VALID,149,VALID,1.11338,
2002-07-27, 07:42:00,VALID,916.77,VALID,0,VALID,87.981,VALID,243.233,VALID,22.1755,VALID,159,VALID,1.31467,
2002-07-27, 07:43:00,VALID,916.789,VALID,0,VALID,88.1629,VALID,246.613,VALID,22.2108,VALID,152,VALID,1.13594,
2002-07-27, 07:44:00,VALID,916.796,VALID,0,VALID,88.2926,VALID,251.231,VALID,22.2725,VALID,160,VALID,0.889246,
2002-07-27, 07:45:00,VALID,916.811,VALID,0,VALID,87.5245,VALID,254.152,VALID,22.326,VALID,164,VALID,0.786184,
2002-07-27, 07:46:00,VALID,916.834,VALID,0,VALID,86.6433,VALID,258.244,VALID,22.3969,VALID,134,VALID,0.665541,
2002-07-27, 07:47:00,VALID,916.848,VALID,0,VALID,86.0635,VALID,261.793,VALID,22.4841,VALID,145,VALID,1.14383,
2002-07-27, 07:48:00,VALID,916.865,VALID,0,VALID,86.1525,VALID,266.497,VALID,22.5391,VALID,168,VALID,1.48237,
2002-07-27, 07:49:00,VALID,916.86,VALID,0,VALID,85.7036,VALID,269.537,VALID,22.5779,VALID,170,VALID,0.966682,
2002-07-27, 07:50:00,VALID,916.882,VALID,0,VALID,85.6324,VALID,271.099,VALID,22.6258,VALID,187,VALID,0.729167,
2002-07-27, 07:51:00,VALID,916.894,VALID,0,VALID,85.2827,VALID,275.072,VALID,22.6875,VALID,167,VALID,0.975329,
2002-07-27, 07:52:00,VALID,916.911,VALID,0,VALID,85.3526,VALID,278.842,VALID,22.723,VALID,184,VALID,0.664063,
2002-07-27, 07:53:00,VALID,916.941,VALID,0,VALID,84.7919,VALID,281.474,VALID,22.7748,VALID,159,VALID,1.3099,
2002-07-27, 07:54:00,VALID,916.966,VALID,0,VALID,84.5592,VALID,284.684,VALID,22.8068,VALID,177,VALID,1.1991,
2002-07-27, 07:55:00,VALID,917.017,VALID,0,VALID,84.3849,VALID,288.963,VALID,22.8154,VALID,193,VALID,1.39904,
2002-07-27, 07:56:00,VALID,917.047,VALID,0,VALID,85.3997,VALID,292.121,VALID,22.7901,VALID,242,VALID,0.59889,
2002-07-27, 07:57:00,VALID,917.095,VALID,0,VALID,85.5561,VALID,291.968,VALID,22.7613,VALID,228,VALID,1.11478,
2002-07-27, 07:58:00,VALID,917.137,VALID,0,VALID,85.8956,VALID,293.734,VALID,22.6925,VALID,217,VALID,0.844952,
2002-07-27, 07:59:00,VALID,917.172,VALID,0,VALID,86.0037,VALID,298.523,VALID,22.6405,VALID,277,VALID,0.659237,
2002-07-27, 08:00:00,VALID,917.188,VALID,0,VALID,86.1398,VALID,299.712,VALID,22.4854,VALID,253,VALID,1.03766,
2002-07-27, 08:01:00,VALID,917.192,VALID,0,VALID,87.3567,VALID,301.563,VALID,22.2683,VALID,271,VALID,0.717311,
2002-07-27, 08:02:00,VALID,917.212,VALID,0,VALID,87.7852,VALID,309.951,VALID,22.1455,VALID,266,VALID,0.566817,
2002-07-27, 08:03:00,VALID,917.22,VALID,0,VALID,88.0103,VALID,313.925,VALID,22.0647,VALID,260,VALID,0.789864,
2002-07-27, 08:04:00,VALID,917.224,VALID,0,VALID,88.7911,VALID,318.391,VALID,22.045,VALID,237,VALID,0.292614,
2002-07-27, 08:05:00,VALID,917.252,VALID,0,VALID,88.374,VALID,329.428,VALID,22.0674,VALID,241,VALID,0.567909,
2002-07-27, 08:06:00,VALID,917.278,VALID,0,VALID,88.4515,VALID,330.124,VALID,22.0606,VALID,258,VALID,0.654811,
2002-07-27, 08:07:00,VALID,917.298,VALID,0,VALID,88.6029,VALID,341.79,VALID,22.0412,VALID,282,VALID,0.447115,
2002-07-27, 08:08:00,VALID,917.334,VALID,0,VALID,88.6906,VALID,338.275,VALID,22.0999,VALID,258,VALID,0.407853,
2002-07-27, 08:09:00,VALID,917.364,VALID,0,VALID,88.5965,VALID,262.116,VALID,22.1476,VALID,257,VALID,0.524586,
2002-07-27, 08:10:00,VALID,917.412,VALID,0,VALID,88.7262,VALID,348.735,VALID,22.2287,VALID,220,VALID,0.372596,
2002-07-27, 08:11:00,VALID,917.446,VALID,0,VALID,87.8221,VALID,336.237,VALID,22.342,VALID,215,VALID,0.29153,
2002-07-27, 08:12:00,VALID,917.475,VALID,0,VALID,87.1469,VALID,278.808,VALID,22.3668,VALID,242,VALID,1.11123,
2002-07-27, 08:13:00,VALID,917.514,VALID,0,VALID,87.3847,VALID,193.853,VALID,22.231,VALID,241,VALID,1.17768,
2002-07-27, 08:14:00,VALID,917.555,VALID,0,VALID,87.5983,VALID,104.857,VALID,22.0792,VALID,244,VALID,1.33239,
2002-07-27, 08:15:00,VALID,917.59,VALID,0,VALID,88.7631,VALID,104.398,VALID,21.9332,VALID,251,VALID,1.07672,
2002-07-27, 08:16:00,VALID,917.631,VALID,0,VALID,89.0746,VALID,109.424,VALID,21.8042,VALID,244,VALID,1.17311,
2002-07-27, 08:17:00,VALID,917.667,VALID,0,VALID,89.849,VALID,117.507,VALID,21.6976,VALID,259,VALID,1.00321,
2002-07-27, 08:18:00,VALID,917.681,VALID,0,VALID,90.4569,VALID,134.352,VALID,21.5972,VALID,263,VALID,0.91887,
2002-07-27, 08:19:00,VALID,917.719,VALID,0,VALID,91.4004,VALID,135.184,VALID,21.594,VALID,294,VALID,0.0834099,
2002-07-27, 08:20:00,VALID,917.737,VALID,0,VALID,91.4004,VALID,139.803,VALID,21.6812,VALID,200,VALID,0.398838,
2002-07-27, 08:21:00,VALID,917.74,VALID,0,VALID,90.9108,VALID,154.135,VALID,21.7391,VALID,202,VALID,0.171053,
2002-07-27, 08:22:00,VALID,917.749,VALID,0,VALID,90.5319,VALID,163.746,VALID,21.8236,VALID,209,VALID,0.0499589,
2002-07-27, 08:23:00,VALID,917.768,VALID,0,VALID,90.1364,VALID,170.301,VALID,21.9144,VALID,212,VALID,0.16246,
2002-07-27, 08:24:00,VALID,917.771,VALID,0,VALID,89.9063,VALID,189.048,VALID,21.969,VALID,233,VALID,0.296402,
2002-07-27, 08:25:00,VALID,917.762,VALID,0,VALID,89.6341,VALID,213.568,VALID,21.9758,VALID,238,VALID,0.52524,
2002-07-27, 08:26:00,VALID,917.771,VALID,0,VALID,90.0296,VALID,291.951,VALID,21.9623,VALID,274,VALID,0.588199,
2002-07-27, 08:27:00,VALID,917.784,VALID,0,VALID,89.9597,VALID,288.81,VALID,21.9887,VALID,303,VALID,0.42508,
2002-07-27, 08:28:00,VALID,917.808,VALID,0,VALID,89.7053,VALID,292.376,VALID,22.0856,VALID,284,VALID,0.693109,
2002-07-27, 08:29:00,VALID,917.834,VALID,0,VALID,89.1954,VALID,358.618,VALID,22.108,VALID,288,VALID,0.484835,
2002-07-27, 08:30:00,VALID,917.861,VALID,0,VALID,88.3333,VALID,322.279,VALID,22.0953,VALID,299,VALID,0.47496,
2002-07-27, 08:31:00,VALID,917.882,VALID,0,VALID,88.9882,VALID,280.591,VALID,22.1238,VALID,283,VALID,0.288857,
2002-07-27, 08:32:00,VALID,917.893,VALID,0,VALID,88.5291,VALID,261.59,VALID,22.2369,VALID,231,VALID,0.610197,
2002-07-27, 08:33:00,VALID,917.917,VALID,0,VALID,88.8012,VALID,258.041,VALID,22.3245,VALID,243,VALID,0.542468,
2002-07-27, 08:34:00,VALID,917.931,VALID,0,VALID,87.9569,VALID,290.101,VALID,22.3671,VALID,237,VALID,0.649148,
2002-07-27, 08:35:00,VALID,917.95,VALID,0,VALID,87.7674,VALID,295.619,VALID,22.4211,VALID,203,VALID,0.520032,
2002-07-27, 08:36:00,VALID,917.958,VALID,0,VALID,87.2003,VALID,279.335,VALID,22.5569,VALID,203,VALID,0.489515,
2002-07-27, 08:37:00,VALID,917.971,VALID,0,VALID,86.8099,VALID,246.714,VALID,22.7152,VALID,237,VALID,0.292268,
2002-07-27, 08:38:00,VALID,917.968,VALID,0,VALID,85.9859,VALID,200.798,VALID,22.8216,VALID,31,VALID,0.568109,
2002-07-27, 08:39:00,VALID,917.969,VALID,0,VALID,86.431,VALID,185.38,VALID,22.8322,VALID,36,VALID,0.702665,
2002-07-27, 08:40:00,VALID,917.954,VALID,0,VALID,86.9002,VALID,181.236,VALID,22.8319,VALID,29,VALID,0.773638,
2002-07-27, 08:41:00,VALID,917.951,VALID,0,VALID,86.6891,VALID,176.601,VALID,22.8251,VALID,27,VALID,0.40625,
2002-07-27, 08:42:00,VALID,917.95,VALID,0,VALID,86.9688,VALID,178.214,VALID,22.8383,VALID,21,VALID,0.549548,
2002-07-27, 08:43:00,VALID,917.942,VALID,0,VALID,87.1151,VALID,178.757,VALID,22.8151,VALID,20,VALID,1.14303,
2002-07-27, 08:44:00,VALID,917.93,VALID,0,VALID,88.0612,VALID,182.085,VALID,22.7182,VALID,17,VALID,2.17637,
2002-07-27, 08:45:00,VALID,917.928,VALID,0,VALID,88.0523,VALID,186.314,VALID,22.618,VALID,20,VALID,2.07612,
2002-07-27, 08:46:00,VALID,917.951,VALID,0,VALID,88.3117,VALID,208.915,VALID,22.5237,VALID,19,VALID,2.18483,
2002-07-27, 08:47:00,VALID,917.976,VALID,0,VALID,88.5647,VALID,248.209,VALID,22.4884,VALID,28,VALID,1.96995,
2002-07-27, 08:48:00,VALID,917.997,VALID,0,VALID,87.8806,VALID,304.093,VALID,22.4209,VALID,15,VALID,2.30329,
2002-07-27, 08:49:00,VALID,918.022,VALID,0,VALID,88.1235,VALID,246.884,VALID,22.3465,VALID,18,VALID,2.0471,
2002-07-27, 08:50:00,VALID,918.052,VALID,0,VALID,88.1387,VALID,245.798,VALID,22.2795,VALID,14,VALID,1.60437,
2002-07-27, 08:51:00,VALID,918.075,VALID,0,VALID,88.7262,VALID,229.598,VALID,22.2531,VALID,1,VALID,0.997944,
2002-07-27, 08:52:00,VALID,918.093,VALID,0,VALID,89.2285,VALID,201.478,VALID,22.3212,VALID,351,VALID,1.19757,
2002-07-27, 08:53:00,VALID,918.121,VALID,0,VALID,89.184,VALID,185.04,VALID,22.3245,VALID,344,VALID,0.987981,
2002-07-27, 08:54:00,VALID,918.135,VALID,0,VALID,88.9513,VALID,185.04,VALID,22.3277,VALID,8,VALID,1.71141,
2002-07-27, 08:55:00,VALID,918.132,VALID,0,VALID,88.2366,VALID,193.021,VALID,22.2399,VALID,357,VALID,1.87019,
2002-07-27, 08:56:00,VALID,918.157,VALID,0,VALID,88.449,VALID,196.061,VALID,22.1368,VALID,337,VALID,1.18503,
2002-07-27, 08:57:00,VALID,918.162,VALID,0,VALID,89.011,VALID,192.732,VALID,22.0724,VALID,311,VALID,0.942356,
2002-07-27, 08:58:00,VALID,918.174,VALID,0,VALID,89.4599,VALID,189.285,VALID,22.0598,VALID,296,VALID,0.345954,
2002-07-27, 08:59:00,VALID,918.181,VALID,0,VALID,89.802,VALID,184.785,VALID,22.1045,VALID,348,VALID,0.741958,
2002-07-27, 09:00:00,VALID,918.195,VALID,0,VALID,89.1713,VALID,183.733,VALID,22.1406,VALID,347,VALID,0.507412,
2002-07-27, 09:01:00,VALID,918.217,VALID,0,VALID,89.5044,VALID,186.382,VALID,22.1955,VALID,351,VALID,0.675987,
2002-07-27, 09:02:00,VALID,918.218,VALID,0,VALID,89.245,VALID,192.58,VALID,22.2798,VALID,5,VALID,1.27467,
2002-07-27, 09:03:00,VALID,918.26,VALID,0,VALID,88.5151,VALID,202.361,VALID,22.2857,VALID,353,VALID,0.938702,
2002-07-27, 09:04:00,VALID,918.272,VALID,0,VALID,88.9462,VALID,214.706,VALID,22.2919,VALID,355,VALID,0.799479,
2002-07-27, 09:05:00,VALID,918.28,VALID,0,VALID,89.4243,VALID,230.515,VALID,22.3468,VALID,15,VALID,0.948918,
2002-07-27, 09:06:00,VALID,918.284,VALID,0,VALID,89.6316,VALID,255.341,VALID,22.4344,VALID,19,VALID,1.17331,
2002-07-27, 09:07:00,VALID,918.288,VALID,0,VALID,89.5362,VALID,513.857,VALID,22.524,VALID,352,VALID,1.26102,
2002-07-27, 09:08:00,VALID,918.275,VALID,0,VALID,88.7211,VALID,507.149,VALID,22.6897,VALID,354,VALID,1.14443,
2002-07-27, 09:09:00,VALID,918.245,VALID,0,VALID,86.8506,VALID,496.672,VALID,22.786,VALID,339,VALID,1.04366,
2002-07-27, 09:10:00,VALID,918.22,VALID,0,VALID,87.1647,VALID,350.264,VALID,22.9547,VALID,23,VALID,1.40164,
2002-07-27, 09:11:00,VALID,918.198,VALID,0,VALID,85.2598,VALID,331.89,VALID,23.0805,VALID,37,VALID,1.56785,
2002-07-27, 09:12:00,VALID,918.168,VALID,0,VALID,84.9381,VALID,573.273,VALID,23.0896,VALID,22,VALID,1.86246,
2002-07-27, 09:13:00,VALID,918.146,VALID,0,VALID,84.488,VALID,655.766,VALID,23.1833,VALID,27,VALID,1.43149,
2002-07-27, 09:14:00,VALID,918.121,VALID,0,VALID,83.2952,VALID,669.299,VALID,23.4419,VALID,34,VALID,0.977509,
2002-07-27, 09:15:00,VALID,918.109,VALID,0,VALID,82.7586,VALID,672.933,VALID,23.7137,VALID,29,VALID,1.72276,
2002-07-27, 09:16:00,VALID,918.102,VALID,0,VALID,82.2537,VALID,697.963,VALID,23.8434,VALID,13,VALID,1.27817,
2002-07-27, 09:17:00,VALID,918.113,VALID,0,VALID,82.3987,VALID,715.334,VALID,24.0403,VALID,10,VALID,1.13562,
2002-07-27, 09:18:00,VALID,918.112,VALID,0,VALID,82.0783,VALID,729.921,VALID,24.2854,VALID,14,VALID,2.12841,
2002-07-27, 09:19:00,VALID,918.12,VALID,0,VALID,79.755,VALID,736.204,VALID,24.5153,VALID,27,VALID,1.96461,
2002-07-27, 09:20:00,VALID,918.145,VALID,0,VALID,78.8102,VALID,728.274,VALID,24.6523,VALID,23,VALID,1.44752,
2002-07-27, 09:21:00,VALID,918.149,VALID,0,VALID,77.6887,VALID,722.823,VALID,24.6679,VALID,29,VALID,1.56456,
2002-07-27, 09:22:00,VALID,918.167,VALID,0,VALID,78.0587,VALID,621.685,VALID,24.6967,VALID,35,VALID,1.47122,
2002-07-27, 09:23:00,VALID,918.186,VALID,0,VALID,77.8794,VALID,371.269,VALID,24.7811,VALID,71,VALID,0.842147,
2002-07-27, 09:24:00,VALID,918.183,VALID,0,VALID,76.2492,VALID,369.061,VALID,24.7675,VALID,54,VALID,1.192,
2002-07-27, 09:25:00,VALID,918.169,VALID,0,VALID,76.9791,VALID,376.261,VALID,24.6637,VALID,64,VALID,0.819511,
2002-07-27, 09:26:00,VALID,918.165,VALID,0,VALID,77.695,VALID,584.871,VALID,24.6217,VALID,91,VALID,0.758018,
2002-07-27, 09:27:00,VALID,918.179,VALID,0,VALID,78.9425,VALID,664.409,VALID,24.6369,VALID,13,VALID,1.85657,
2002-07-27, 09:28:00,VALID,918.176,VALID,0,VALID,78.5343,VALID,812.397,VALID,24.7181,VALID,355,VALID,1.12119,
2002-07-27, 09:29:00,VALID,918.191,VALID,0,VALID,78.3156,VALID,827.17,VALID,24.9794,VALID,40,VALID,0.280561,
2002-07-27, 09:30:00,VALID,918.203,VALID,0,VALID,77.2004,VALID,837.834,VALID,25.4195,VALID,172,VALID,0.396034,
2002-07-27, 09:31:00,VALID,918.214,VALID,0,VALID,76.2492,VALID,846.104,VALID,25.6359,VALID,238,VALID,0.997944,
2002-07-27, 09:32:00,VALID,918.232,VALID,0,VALID,74.5237,VALID,615.708,VALID,25.5806,VALID,226,VALID,0.682977,
2002-07-27, 09:33:00,VALID,918.229,VALID,0,VALID,74.6038,VALID,634.828,VALID,25.5534,VALID,228,VALID,1.25501,
2002-07-27, 09:34:00,VALID,918.224,VALID,0,VALID,73.4631,VALID,731.263,VALID,25.5411,VALID,218,VALID,1.44579,
2002-07-27, 09:35:00,VALID,918.229,VALID,0,VALID,73.762,VALID,487.214,VALID,25.4305,VALID,219,VALID,0.954928,
2002-07-27, 09:36:00,VALID,918.213,VALID,0,VALID,74.3723,VALID,379.046,VALID,25.3882,VALID,309,VALID,0.504729,
2002-07-27, 09:37:00,VALID,918.195,VALID,0,VALID,73.8879,VALID,465.835,VALID,25.4011,VALID,312,VALID,0.448718,
2002-07-27, 09:38:00,VALID,918.176,VALID,0,VALID,71.8902,VALID,388.165,VALID,25.3785,VALID,248,VALID,0.535056,
2002-07-27, 09:39:00,VALID,918.161,VALID,0,VALID,72.0822,VALID,330.838,VALID,25.3426,VALID,298,VALID,0.338235,
2002-07-27, 09:40:00,VALID,918.154,VALID,0,VALID,71.7401,VALID,562.999,VALID,25.3481,VALID,295,VALID,0.530649,
2002-07-27, 09:41:00,VALID,918.142,VALID,0,VALID,72.423,VALID,692.682,VALID,25.2614,VALID,278,VALID,0.301192,
2002-07-27, 09:42:00,VALID,918.141,VALID,0,VALID,73.0079,VALID,675.396,VALID,25.3481,VALID,293,VALID,0.60074,
2002-07-27, 09:43:00,VALID,918.138,VALID,0,VALID,73.3996,VALID,479.25,VALID,25.471,VALID,289,VALID,0.491787,
2002-07-27, 09:44:00,VALID,918.12,VALID,0,VALID,73.2164,VALID,595.127,VALID,25.5971,VALID,333,VALID,0.577178,
2002-07-27, 09:45:00,VALID,918.103,VALID,0,VALID,72.6735,VALID,503.957,VALID,25.7481,VALID,297,VALID,0.657452,
2002-07-27, 09:46:00,VALID,918.086,VALID,0,VALID,73.35,VALID,492.138,VALID,25.7132,VALID,310,VALID,0.677837,
2002-07-27, 09:47:00,VALID,918.082,VALID,0,VALID,73.2126,VALID,366.446,VALID,25.7678,VALID,308,VALID,0.591546,
2002-07-27, 09:48:00,VALID,918.06,VALID,0,VALID,73.7632,VALID,312.668,VALID,25.6834,VALID,233,VALID,1.0028,
2002-07-27, 09:49:00,VALID,918.051,VALID,0,VALID,74.6457,VALID,274.478,VALID,25.3934,VALID,214,VALID,1.08088,
2002-07-27, 09:50:00,VALID,918.033,VALID,0,VALID,75.9974,VALID,262.303,VALID,25.2646,VALID,243,VALID,0.388622,
2002-07-27, 09:51:00,VALID,918.043,VALID,0,VALID,77.3034,VALID,256.971,VALID,25.1334,VALID,244,VALID,0.89227,
2002-07-27, 09:52:00,VALID,918.044,VALID,0,VALID,77.8603,VALID,252.335,VALID,24.9462,VALID,239,VALID,0.744243,
2002-07-27, 09:53:00,VALID,918.069,VALID,0,VALID,78.6284,VALID,244.711,VALID,24.8327,VALID,238,VALID,1.02244,
2002-07-27, 09:54:00,VALID,918.084,VALID,0,VALID,78.9705,VALID,246.935,VALID,24.6552,VALID,225,VALID,0.55232,
2002-07-27, 09:55:00,VALID,918.101,VALID,0,VALID,79.7194,VALID,259.229,VALID,24.5902,VALID,259,VALID,0.497196,
2002-07-27, 09:56:00,VALID,918.101,VALID,0,VALID,80.003,VALID,285.567,VALID,24.5094,VALID,256,VALID,0.966283,
2002-07-27, 09:57:00,VALID,918.127,VALID,0,VALID,79.975,VALID,305.179,VALID,24.3478,VALID,240,VALID,1.05409,
2002-07-27, 09:58:00,VALID,918.116,VALID,0,VALID,80.9287,VALID,298.048,VALID,24.1723,VALID,231,VALID,0.889022,
2002-07-27, 09:59:00,VALID,918.11,VALID,0,VALID,81.1563,VALID,315.809,VALID,24.1177,VALID,219,VALID,0.750919,
2002-07-27, 10:00:00,VALID,918.108,VALID,0,VALID,81.6993,VALID,409.459,VALID,24.1891,VALID,228,VALID,0.608173,
2002-07-27, 10:01:00,VALID,918.101,VALID,0,VALID,81.3763,VALID,513.466,VALID,24.3193,VALID,219,VALID,0.435238,
2002-07-27, 10:02:00,VALID,918.099,VALID,0,VALID,81.0432,VALID,798.014,VALID,24.5614,VALID,195,VALID,0.428248,
2002-07-27, 10:03:00,VALID,918.096,VALID,0,VALID,80.4557,VALID,772.866,VALID,24.8812,VALID,259,VALID,0.378005,
2002-07-27, 10:04:00,VALID,918.094,VALID,0,VALID,79.2464,VALID,734.455,VALID,25.0664,VALID,245,VALID,0.873816,
2002-07-27, 10:05:00,VALID,918.077,VALID,0,VALID,78.3525,VALID,569.639,VALID,25.2743,VALID,204,VALID,0.893229,
2002-07-27, 10:06:00,VALID,918.085,VALID,0,VALID,77.8502,VALID,647.224,VALID,25.3975,VALID,244,VALID,1.06805,
2002-07-27, 10:07:00,VALID,918.072,VALID,0,VALID,78.4427,VALID,616.37,VALID,25.2905,VALID,237,VALID,1.33474,
2002-07-27, 10:08:00,VALID,918.085,VALID,0,VALID,78.2431,VALID,498.795,VALID,25.219,VALID,238,VALID,1.3147,
2002-07-27, 10:09:00,VALID,918.085,VALID,0,VALID,77.6276,VALID,592.512,VALID,25.0903,VALID,253,VALID,1.33157,
2002-07-27, 10:10:00,VALID,918.102,VALID,0,VALID,78.2838,VALID,591.289,VALID,24.9604,VALID,237,VALID,1.25761,
2002-07-27, 10:11:00,VALID,918.113,VALID,0,VALID,78.1757,VALID,395.348,VALID,24.8892,VALID,238,VALID,1.54071,
2002-07-27, 10:12:00,VALID,918.109,VALID,0,VALID,78.1426,VALID,335.626,VALID,24.7408,VALID,215,VALID,1.51377,
2002-07-27, 10:13:00,VALID,918.123,VALID,0,VALID,78.9069,VALID,305.112,VALID,24.7337,VALID,218,VALID,1.17167,
2002-07-27, 10:14:00,VALID,918.114,VALID,0,VALID,78.472,VALID,278.316,VALID,24.7634,VALID,200,VALID,1.67069,
2002-07-27, 10:15:00,VALID,918.114,VALID,0,VALID,79.6787,VALID,256.275,VALID,24.7211,VALID,209,VALID,0.996394,
2002-07-27, 10:16:00,VALID,918.1,VALID,0,VALID,79.5846,VALID,254.033,VALID,24.6959,VALID,221,VALID,1.05798,
2002-07-27, 10:17:00,VALID,918.095,VALID,0,VALID,80.3985,VALID,238.734,VALID,24.6758,VALID,207,VALID,0.799679,
2002-07-27, 10:18:00,VALID,918.098,VALID,0,VALID,80.7062,VALID,223.315,VALID,24.7273,VALID,248,VALID,0.498998,
2002-07-27, 10:19:00,VALID,918.091,VALID,0,VALID,80.4621,VALID,216.03,VALID,24.7305,VALID,232,VALID,0.695313,
2002-07-27, 10:20:00,VALID,918.094,VALID,0,VALID,80.134,VALID,221.141,VALID,24.7451,VALID,205,VALID,0.583333,
2002-07-27, 10:21:00,VALID,918.106,VALID,0,VALID,80.0119,VALID,235.626,VALID,24.8395,VALID,239,VALID,0.406867,
2002-07-27, 10:22:00,VALID,918.108,VALID,0,VALID,79.6787,VALID,248.294,VALID,24.8298,VALID,250,VALID,0.577508,
2002-07-27, 10:23:00,VALID,918.116,VALID,0,VALID,79.2604,VALID,288.097,VALID,24.7457,VALID,242,VALID,0.881611,
2002-07-27, 10:24:00,VALID,918.087,VALID,0,VALID,78.4733,VALID,491.238,VALID,24.6587,VALID,234,VALID,0.821023,
2002-07-27, 10:25:00,VALID,918.09,VALID,0,VALID,78.7606,VALID,511.174,VALID,24.6843,VALID,236,VALID,0.318109,
2002-07-27, 10:26:00,VALID,918.063,VALID,0,VALID,78.6945,VALID,386.229,VALID,24.7296,VALID,250,VALID,0.948602,
2002-07-27, 10:27:00,VALID,918.041,VALID,0,VALID,79.0785,VALID,294.685,VALID,24.7457,VALID,206,VALID,0.840745,
2002-07-27, 10:28:00,VALID,918.018,VALID,0,VALID,78.1134,VALID,363.594,VALID,24.8621,VALID,201,VALID,0.407652,
2002-07-27, 10:29:00,VALID,918.009,VALID,0,VALID,78.1655,VALID,287.231,VALID,25.0238,VALID,310,VALID,0.753906,
2002-07-27, 10:30:00,VALID,917.999,VALID,0,VALID,77.9951,VALID,287.774,VALID,25.0464,VALID,1,VALID,0.625601,
2002-07-27, 10:31:00,VALID,917.983,VALID,0,VALID,77.9112,VALID,303.346,VALID,25.1017,VALID,297,VALID,0.506373,
2002-07-27, 10:32:00,VALID,917.97,VALID,0,VALID,77.381,VALID,350.06,VALID,25.0923,VALID,234,VALID,0.512952,
2002-07-27, 10:33:00,VALID,917.952,VALID,0,VALID,78.8776,VALID,325.556,VALID,25.0952,VALID,331,VALID,0.578125,
2002-07-27, 10:34:00,VALID,917.948,VALID,0,VALID,78.4949,VALID,628.206,VALID,25.1667,VALID,319,VALID,0.116004,
2002-07-27, 10:35:00,VALID,917.934,VALID,0,VALID,77.5323,VALID,589.761,VALID,25.3979,VALID,310,VALID,0.276643,
2002-07-27, 10:36:00,VALID,917.914,VALID,0,VALID,76.459,VALID,830.804,VALID,25.547,VALID,277,VALID,0.274465,
2002-07-27, 10:37:00,VALID,917.901,VALID,0,VALID,75.0387,VALID,790.865,VALID,25.5796,VALID,307,VALID,0.767027,
2002-07-27, 10:38:00,VALID,917.875,VALID,0,VALID,76.1144,VALID,746.477,VALID,25.6136,VALID,314,VALID,0.681691,
2002-07-27, 10:39:00,VALID,917.851,VALID,0,VALID,76.974,VALID,486.059,VALID,25.7404,VALID,323,VALID,0.705193,
2002-07-27, 10:40:00,VALID,917.845,VALID,0,VALID,76.0343,VALID,580.524,VALID,25.9542,VALID,331,VALID,0.404046,
2002-07-27, 10:41:00,VALID,917.828,VALID,0,VALID,73.1948,VALID,311.972,VALID,26.0159,VALID,305,VALID,0.840872,
2002-07-27, 10:42:00,VALID,917.822,VALID,0,VALID,74.5376,VALID,298.642,VALID,25.8827,VALID,19,VALID,0.896998,
2002-07-27, 10:43:00,VALID,917.806,VALID,0,VALID,73.1694,VALID,274.529,VALID,25.8597,VALID,312,VALID,1.0631,
2002-07-27, 10:44:00,VALID,917.812,VALID,0,VALID,74.3812,VALID,242.69,VALID,25.7688,VALID,308,VALID,0.631155,
2002-07-27, 10:45:00,VALID,917.8,VALID,0,VALID,75.1086,VALID,226.728,VALID,25.73,VALID,249,VALID,0.782853,
2002-07-27, 10:46:00,VALID,917.782,VALID,0,VALID,75.7508,VALID,215.13,VALID,25.5486,VALID,245,VALID,0.621916,
2002-07-27, 10:47:00,VALID,917.78,VALID,0,VALID,76.4361,VALID,209.119,VALID,25.4192,VALID,242,VALID,0.673077,
2002-07-27, 10:48:00,VALID,917.763,VALID,0,VALID,76.782,VALID,204.789,VALID,25.3545,VALID,206,VALID,0.342548,
2002-07-27, 10:49:00,VALID,917.75,VALID,0,VALID,76.4222,VALID,199.032,VALID,25.4095,VALID,206,VALID,0.22932,
2002-07-27, 10:50:00,VALID,917.737,VALID,0,VALID,75.7597,VALID,201.512,VALID,25.4538,VALID,225,VALID,0.276242,
2002-07-27, 10:51:00,VALID,917.733,VALID,0,VALID,75.1773,VALID,207.132,VALID,25.4457,VALID,274,VALID,0.18935,
2002-07-27, 10:52:00,VALID,917.725,VALID,0,VALID,75.5244,VALID,215.011,VALID,25.4684,VALID,304,VALID,0.114515,
2002-07-27, 10:53:00,VALID,917.721,VALID,0,VALID,75.3197,VALID,226.524,VALID,25.5098,VALID,304,VALID,0.384615,
2002-07-27, 10:54:00,VALID,917.721,VALID,0,VALID,74.4219,VALID,247.462,VALID,25.361,VALID,309,VALID,0.626184,
2002-07-27, 10:55:00,VALID,917.711,VALID,0,VALID,75.012,VALID,260.961,VALID,25.1673,VALID,311,VALID,0.89363,
2002-07-27, 10:56:00,VALID,917.7,VALID,0,VALID,75.6045,VALID,258.431,VALID,24.9668,VALID,288,VALID,0.942229,
2002-07-27, 10:57:00,VALID,917.675,VALID,0,VALID,76.6104,VALID,245.916,VALID,24.8766,VALID,275,VALID,0.688702,
2002-07-27, 10:58:00,VALID,917.665,VALID,0,VALID,76.3433,VALID,236.951,VALID,24.8899,VALID,272,VALID,0.545072,
2002-07-27, 10:59:00,VALID,917.638,VALID,0,VALID,75.9657,VALID,234.879,VALID,24.8963,VALID,298,VALID,0.553768,
2002-07-27, 11:00:00,VALID,917.609,VALID,0,VALID,76.1055,VALID,242.588,VALID,24.8669,VALID,300,VALID,0.413662,
2002-07-27, 11:01:00,VALID,917.565,VALID,0,VALID,76.5048,VALID,259.586,VALID,24.8478,VALID,302,VALID,0.42023,
2002-07-27, 11:02:00,VALID,917.529,VALID,0,VALID,77.4,VALID,288.555,VALID,24.8634,VALID,335,VALID,0.604235,
2002-07-27, 11:03:00,VALID,917.484,VALID,0,VALID,76.768,VALID,389.642,VALID,24.9772,VALID,354,VALID,0.669271,
2002-07-27, 11:04:00,VALID,917.451,VALID,0,VALID,75.8677,VALID,440.313,VALID,25.1188,VALID,344,VALID,0.471117,
2002-07-27, 11:05:00,VALID,917.414,VALID,0,VALID,74.839,VALID,347.971,VALID,25.286,VALID,341,VALID,0.025641,
2002-07-27, 11:06:00,VALID,917.405,VALID,0,VALID,74.2528,VALID,323.841,VALID,25.4826,VALID,236,VALID,0.0912829,
2002-07-27, 11:07:00,VALID,917.383,VALID,0,VALID,73.8586,VALID,315.096,VALID,25.6511,VALID,277,VALID,0.203526,
2002-07-27, 11:08:00,VALID,917.393,VALID,0,VALID,73.3118,VALID,326.015,VALID,25.8099,VALID,306,VALID,0.40024,
2002-07-27, 11:09:00,VALID,917.381,VALID,0,VALID,72.7777,VALID,358.805,VALID,25.8351,VALID,227,VALID,0.675551,
2002-07-27, 11:10:00,VALID,917.401,VALID,0,VALID,73.467,VALID,369.944,VALID,25.752,VALID,192,VALID,0.909054,
2002-07-27, 11:11:00,VALID,917.411,VALID,0,VALID,73.57,VALID,362.388,VALID,25.8225,VALID,190,VALID,0.787212,
2002-07-27, 11:12:00,VALID,917.427,VALID,0,VALID,73.9082,VALID,356.394,VALID,25.8749,VALID,218,VALID,0.896587,
2002-07-27, 11:13:00,VALID,917.433,VALID,0,VALID,73.6157,VALID,343.234,VALID,25.7319,VALID,221,VALID,1.45974,
2002-07-27, 11:14:00,VALID,917.446,VALID,0,VALID,74.4613,VALID,309.815,VALID,25.5867,VALID,210,VALID,0.974195,